• Join FlightAware (Why Join?)
  • Login
  • US Flag 
07:18AM EDT


 

Airport Tracker/Info


-or-


 

Live Flight TrackerFlight Track Log ✈ SUB1019 ✈ 05-Jul-2013 ✈ KRIC - KCVG

Flight Track Log - Related Links

Times and Time Zones

All times are in EDT time to prevent confusion due to time zone crossing. See the SUB1019 flight status page for this flight to view local times or setup timezone preferences in your user account.

Time Position Orientation Groundspeed Altitude Reporting Facility
EDT Latitude Longitude Course Direction KTS MPH feet Rate Location/Type
09:25PM 37.4667 -77.3000 256° West 150 173 2,400  Level Potomac TRACON
09:26PM 37.4500 -77.3500 247° West 151 174 4,600 1,680 Climbing Potomac TRACON
09:28PM 37.4356 -77.4200 255° West 155 178 6,800 1,500 Climbing Washington Center
09:29PM 37.4306 -77.4775 264° West 160 184 8,400 1,560 Climbing Washington Center
09:30PM 37.4256 -77.5297 263° West 160 184 9,900 1,440 Climbing Washington Center
09:31PM 37.3988 -77.7395 256° West  Level FlightAware Approximate
09:31PM 37.4161 -77.5897 259° West 165 190 11,300  Level Washington Center
09:32PM 37.4111 -77.6469 264° West 171 197 12,800 1,320 Climbing Washington Center
09:33PM 37.4036 -77.7094 261° West 176 203 14,000 1,200 Climbing Washington Center
09:34PM 37.3983 -77.7722 264° West 182 209 15,200 1,140 Climbing Washington Center
09:35PM 37.4203 -77.8356 294° West 182 209 16,400 1,140 Climbing Washington Center
09:36PM 37.4400 -77.8961 292° West 182 209 17,500 900 Climbing Washington Center
09:37PM 37.4658 -77.9547 299° West 187 215 18,300 840 Climbing Washington Center
09:38PM 37.4875 -78.0181 293° West 192 221 19,200 840 Climbing Washington Center
09:39PM 37.5050 -78.0814 289° West 197 227 20,000 420 Climbing Washington Center
09:40PM 37.5264 -78.1528 291° West 197 227 20,100  Climbing Washington Center
09:41PM 37.5539 -78.2325 294° West 223 257 20,100  Level Washington Center
09:42PM 37.5792 -78.3197 290° West 244 281 20,100 -60 Level Washington Center
09:43PM 37.6022 -78.4044 289° West 250 288 20,000 -60 Descending Washington Center
09:44PM 37.6233 -78.4864 288° West 250 288 20,000  Level Washington Center
09:45PM 37.6439 -78.5739 287° West 250 288 20,000  Level Washington Center
09:46PM 37.6631 -78.6481 288° West 250 288 20,000  Level Washington Center
09:47PM 37.6836 -78.7328 287° West 250 288 20,100  Climbing Washington Center
09:48PM 37.7086 -78.8178 290° West 255 293 20,100  Level Washington Center
09:49PM 37.7331 -78.9136 288° West 255 293 20,100 -60 Level Washington Center
09:50PM 37.7578 -78.9986 290° West 255 293 20,000 -60 Descending Washington Center
09:51PM 37.7783 -79.0836 287° West 255 293 20,000  Level Washington Center
09:52PM 37.8031 -79.1689 290° West 255 293 20,000  Level Washington Center
09:53PM 37.8236 -79.2436 289° West 255 293 20,100  Climbing Washington Center
09:54PM 37.8481 -79.3289 290° West 255 293 20,100  Level Washington Center
09:55PM 37.8703 -79.4167 288° West 255 293 20,100 -60 Level Washington Center
09:56PM 37.8947 -79.5047 289° West 255 293 20,000  Descending Washington Center
09:57PM 37.9147 -79.5875 287° West 250 288 20,100  Climbing Washington Center
09:58PM 37.9289 -79.6672 283° West 245 282 20,000 -60 Descending Washington Center
09:59PM 37.9472 -79.7367 289° West 245 282 20,000  Level Washington Center
10:00PM 37.9697 -79.8144 290° West 245 282 20,000  Level Washington Center
10:01PM 37.9878 -79.8917 287° West 245 282 20,000  Level Washington Center
10:02PM 38.0119 -79.9747 290° West 240 276 20,100  Climbing Washington Center
10:03PM 38.0300 -80.0497 287° West 235 270 20,000  Descending Washington Center
10:04PM 38.0497 -80.1328 287° West 235 270 20,100  Climbing Washington Center
10:05PM 38.0697 -80.2103 288° West 235 270 20,100 -60 Level Washington Center
10:06PM 38.0897 -80.2881 288° West 240 276 20,000 -60 Descending Washington Center
10:07PM 38.1114 -80.3714 288° West 245 282 20,000  Level Washington Center
10:08PM 38.1308 -80.4569 286° West 250 288 20,000  Level Washington Center
10:10PM 38.1783 -80.6461 288° West 258 297 20,000  Level Indianapolis Center
10:11PM 38.1967 -80.7344 285° West 258 297 20,000  Level Indianapolis Center
10:12PM 38.2172 -80.8239 286° West 264 304 20,000  Level Indianapolis Center
10:13PM 38.2414 -80.9119 289° West 265 305 20,100  Climbing Indianapolis Center
10:14PM 38.2642 -81.0006 288° West 263 303 20,000 -60 Descending Indianapolis Center
10:15PM 38.2825 -81.0897 285° West 262 302 20,000  Level Indianapolis Center
10:16PM 38.3056 -81.1783 288° West 263 303 20,100  Climbing Indianapolis Center
10:17PM 38.3289 -81.2636 289° West 259 298 20,100 -60 Level Indianapolis Center
10:18PM 38.3508 -81.3508 288° West 257 296 20,000 -60 Descending Indianapolis Center
10:19PM 38.3717 -81.4372 287° West 256 295 20,000  Level Indianapolis Center
10:20PM 38.3917 -81.5231 287° West 256 295 20,100  Climbing Indianapolis Center
10:21PM 38.4119 -81.6089 287° West 252 290 20,000 -60 Descending Indianapolis Center
10:22PM 38.4322 -81.6950 287° West 251 289 20,000  Level Indianapolis Center
10:23PM 38.4542 -81.7819 288° West 255 293 20,000  Level Indianapolis Center
10:24PM 38.4753 -81.8672 288° West 252 290 20,000  Level Indianapolis Center
10:25PM 38.4931 -81.9536 285° West 250 288 20,000  Level Indianapolis Center
10:26PM 38.5092 -82.0403 283° West 249 287 20,000  Level Indianapolis Center
10:27PM 38.5261 -82.1253 284° West 247 284 20,000  Level Indianapolis Center
10:29PM 38.5644 -82.2983 286° West 256 295 20,000  Level Indianapolis Center
10:30PM 38.5844 -82.3850 286° West 256 295 20,000 -60 Level Indianapolis Center
10:31PM 38.6056 -82.4711 287° West 253 291 19,900  Descending Indianapolis Center
10:32PM 38.6247 -82.5667 284° West 253 291 20,000 60 Climbing Indianapolis Center
10:33PM 38.6439 -82.6547 286° West 257 296 20,100  Climbing Indianapolis Center
10:34PM 38.6656 -82.7325 290° West 256 295 20,100 -60 Level Indianapolis Center
10:35PM 38.6839 -82.8192 285° West 254 292 20,000 -60 Descending Indianapolis Center
10:36PM 38.7011 -82.9075 284° West 256 295 20,000  Level Indianapolis Center
10:37PM 38.7156 -82.9972 282° West 256 295 20,000 -600 Level Indianapolis Center
10:38PM 38.7367 -83.0931 286° West 278 320 18,800 -1,200 Descending Indianapolis Center
10:39PM 38.7692 -83.2003 291° West 303 349 17,600 -1,260 Descending Indianapolis Center
10:40PM 38.7919 -83.3039 286° West 300 345 16,300 -1,200 Descending Indianapolis Center
10:41PM 38.8128 -83.4042 285° West 291 335 15,200 -1,200 Descending Indianapolis Center
10:42PM 38.8314 -83.5031 284° West 285 328 13,900 -1,320 Descending Indianapolis Center
10:43PM 38.8497 -83.5997 284° West 280 322 12,600 -1,140 Descending Indianapolis Center
10:44PM 38.8669 -83.6983 283° West 281 323 11,600 -960 Descending Indianapolis Center
10:45PM 38.8819 -83.7944 281° West 274 315 10,700 -1,140 Descending Indianapolis Center
10:46PM 38.8978 -83.8903 282° West 272 313 9,400 -1,260 Descending Indianapolis Center
10:47PM 38.9136 -83.9792 283° West 260 299 8,200 -1,200 Descending Indianapolis Center
10:48PM 38.9100 -84.0717 267° West 254 292 7,000 -1,140 Descending Indianapolis Center
10:49PM 38.9025 -84.1589 264° West 248 285 6,000 -960 Descending Indianapolis Center
10:50PM 38.8942 -84.2458 263° West 245 282 5,100 -540 Descending Indianapolis Center
10:51PM 38.8872 -84.3336 264° West 244 281 5,000  Descending Indianapolis Center
10:52PM 38.8806 -84.4167 264° West 239 275 5,100  Climbing Indianapolis Center
10:53PM 38.8794 -84.4842 269° West 197 227 5,100 -300 Level Indianapolis Center
10:54PM 38.8719 -84.5544 262° West 179 206 4,600 -660 Descending Indianapolis Center
10:57PM 38.9167 -84.6667 297° West 191 220 3,100 -720 Descending Cincinnati TRACON
10:58PM 38.9667 -84.6667 360° North 192 221 2,300 -960 Descending Cincinnati TRACON
10:59PM 39.0167 -84.6667 360° North 171 197 1,200 -1,140 Descending Cincinnati TRACON